Flag for U.S.A. Weather past 2 weeks in Sheboygan, Wisconsin, U.S.A.

Now
68 °F

Clear.


Feels Like: 68 °F
Forecast: 67 / 84 °F
Wind: 6 mph from South

Location: Sheboygan County Memorial Airport

Current Time: Jul 22, 2014 at 2:35:31 AM

Latest Report: Jul 22, 2014 at 1:53 AM


Visibility: 8 mi

Pressure: 29.99 "Hg

Humidity: 87%

Dew point: 64 °F

Location of SheboyganLocation

Historic Weather in Sheboygan — Graph

°F

Sheboygan temperature yesterday

Maximum temperature yesterday: 84 °F (at 12:53 PM)
Minimum temperature yesterday: 61 °F (at 12:53 AM)
Average temperature yesterday: 72 °F

Past Weeks' High & Low Weather Summary

 TemperatureHumidityPressure
High84 °F (Jul 7, 2:53 PM)100% (Jul 10, 3:53 AM)30.19 "Hg (Jul 10, 3:53 AM)
Low50 °F (Jul 17, 3:53 AM)37% (Jul 17, 3:53 PM)29.54 "Hg (Jul 8, 5:53 AM)
Average66 °F73%29.96 "Hg
* Reported Jul 7 12:53 AM — Jul 22 12:53 AM, Sheboygan, Weather by CustomWeather, © 2014

Note: Actual official high and low records may vary slightly from our data, if they occured in-between our weather recording intervals... More about our weather records

Advertising

Sheboygan weather history for previous 24 hours

 ConditionsComfort  
Time TempWeatherWind HumidityBarometerVisibility
12:53 AM
Jul 22
66 °FClear.5 mph87%30.00 "Hg8 mi
11:53 PM
Jul 21
67 °FClear.5 mph85%30.00 "Hg9 mi
10:53 PM70 °FClear.5 mph76%30.01 "Hg10 mi
9:53 PM71 °FClear.10 mph73%30.01 "Hg10 mi
8:53 PM73 °FPartly sunny.10 mph69%30.02 "Hg10 mi
7:53 PM75 °FSunny.10 mph62%30.02 "Hg10 mi
6:53 PM76 °FSunny.9 mph62%30.02 "Hg10 mi
5:53 PM78 °FSunny.12 mph62%30.03 "Hg10 mi
4:53 PM79 °FSunny.12 mph60%30.03 "Hg10 mi
3:53 PM80 °FSunny.13 mph60%30.03 "Hg10 mi
2:53 PM81 °FSunny.10 mph60%30.04 "Hg10 mi
1:53 PM81 °FPartly sunny.12 mph60%30.05 "Hg10 mi
12:53 PM84 °FSunny.9 mph55%30.04 "Hg10 mi
11:53 AM81 °FSunny.12 mph58%30.05 "Hg10 mi
10:53 AM80 °FSunny.10 mph60%30.05 "Hg10 mi
9:53 AM77 °FSunny.9 mph64%30.05 "Hg10 mi
8:53 AM74 °FSunny.10 mph69%30.06 "Hg10 mi
7:53 AM70 °FPassing clouds.12 mph76%30.05 "Hg10 mi
6:53 AM66 °FFog.5 mph90%30.06 "Hg6 mi
5:53 AM61 °FFog.3 mph93%30.06 "Hg4 mi
4:53 AM61 °FFog.No wind93%30.05 "Hg3 mi
3:53 AM61 °FFog.5 mph93%30.02 "Hg4 mi
2:53 AM61 °FFog.No wind93%30.01 "Hg5 mi
Weather by CustomWeather, © 2014

See weather overviewHow to use our weather pages